LUCH 5A

Last updated on Mon Sep 07 2026 00:02:48 GMT+0000 (Coordinated Universal Time)

1 37951U 11074B 26249.63082023 -.00000065 00000+0 00000+0 0 9995 2 37951 8.9543 72.5900 0003955 120.2942 186.8655 1.00271648 53861
UTC large
Height (km)
Speed (km/s)
/
Latitude / Longitude
Inclination (degrees)
Orbital Period (minutes)
Azimuth
Elevation
Range (km)
Doppler Factor

Next 0 passes for location: London (51.5072 / 0.1276)

No passes found over London.
LUCH 5A